Погода в Краснодаре

Россия / Краснодарский край     45°02′07″N   38°58′31″E
темп.,
°C
ветер,
м/с
пор.,
м/с
влажн.,
%
обл.,
%
осадки,
мм/ч
давл.,
гПа
погр.,
м
12 мая, ср
ср1200:00+9ююз71577100 0.3 1015855
03:00+9ю61478100 0.7 1015741
06:00+10юв487993 0.1 1016385
09:00+10юв5884100 0.2 1016375
12:00+15вюв466297 0.1 1015878
15:00+19в445497 0.1 1014935
18:00+17св2574100 0.0 1013122
21:00+13ссв228621 0.0 101342
13 мая, чт
чт1300:00+12с11900 0.0 101213
03:00+10з11931 0.0 101219
06:00+10ююв11911 0.0 101338
09:00+17вюв12705 0.0 1013335
12:00+22в345780 0.0 1012578
15:00+24в46526 0.0 1011817
18:00+23всв496977 0.0 1010536
21:00+19всв398692 0.0 1010219
14 мая, пт
пт1400:00+16вюв35915 0.0 101096
03:00+15юв23890 0.0 101034
06:00+16юв22780 0.0 101031
09:00+22вюв23576 0.0 1010205
12:00+28в214616 0.0 1011477
15:00+29всв344524 0.0 1010918
18:00+27всв1264100 0.0 1009127
21:00+22зсз127893 0.0 101013
15 мая, сб
сб1500:00+18з36820 0.0 1010125
03:00+16з4875100 0.0 1012163
06:00+16з36740 0.0 1013133
09:00+22зсз22595 0.0 1014368
12:00+26зсз22515 0.0 1014861
15:00+27ссз22505 0.0 10131262
18:00+25всв33637 0.0 1013608
21:00+20ссв238535 0.3 101247
16 мая, вс
вс1600:00+18ссв35879 0.0 101194
03:00+17ссв12915 0.0 101240
06:00+17вюв25912 0.0 1011131
09:00+22в35765 0.0 1010480
12:00+27всв566531 0.0 1007894
15:00+28всв675999 0.0 10061390
18:00+26св5107259 0.0 1004752
21:00+22всв4118476 0.0 1003329